Regional Weather Roundup
Issued by NWS

Home | Current Version | Previous Version | Graphics & Text | Print | Product List | Glossary On
Versions: 1 2 3 4 5 6 7 8 9 10 11 12 13 14 15 16 17 18 19 20 21 22 23 24 25 26 27 28 29 30 31 32 33 34 35 36 37 38 39 40 41 42 43 44 45 46 47 48 49 50
000
ASUS43 KMKX 230200
RWRWI

WISCONSIN REGIONAL WEATHER ROUNDUP
NATIONAL WEATHER SERVICE MILWAUKEE/SULLIVAN WI
900 PM CDT THU JUN 22 2017

NOTE: "FAIR" INDICATES FEW OR NO CLOUDS BELOW 12,000 FEET WITH NO
SIGNIFICANT WEATHER AND/OR OBSTRUCTIONS TO VISIBILITY.

WIZ001-002-006>008-014>016-023>028-230300-
NORTHWEST WISCONSIN

CITY           SKY/WX    TMP DP  RH WIND       PRES   REMARKS
SUPERIOR ARPT  NOT AVBL
ASHLAND        PTCLDY    67  55  65 SW10      29.67S
HAYWARD        CLEAR     67  56  67 SW5       29.72S
SIREN          CLEAR     67  53  62 CALM      29.73S
CUMBERLAND     CLOUDY    63  57  82 SW5       29.73F
RICE LAKE      CLOUDY    67  60  78 CALM      29.74F
CHETEK         CLOUDY    63  63 100 CALM      29.74S
LADYSMITH      CLEAR     65  62  90 SW3       29.75S
EAU CLAIRE     NOT AVBL
MENOMONIE      MOCLDY    67  65  96 W3        29.73S
NEW RICHMOND   CLOUDY    66  63  88 CALM      29.74F
OSCEOLA        CLOUDY    68  60  77 W3        29.77R
$$

WIZ003>005-009-010-017-018-230300-
NORTH CENTRAL WISCONSIN

CITY           SKY/WX    TMP DP  RH WIND       PRES   REMARKS
MANITOWISH WTR CLEAR     63  59  87 CALM      29.72S
ARBOR VITAE    CLEAR     62  59  90 CALM      29.72S
WOODRUFF       CLEAR     62  59  90 CALM      29.72S
RHINELANDER    PTCLDY    60  60 100 W3        29.72F
EAGLE RIVER    MOCLDY    61  60  97 W5        29.72S
LAND O LAKES   CLEAR     61  57  88 CALM      29.73S
PHILLIPS       CLEAR     61  61  98 CALM      29.73S
TOMAHAWK       NOT AVBL
MEDFORD        CLOUDY    63  61  95 W3        29.74S
MERRILL        CLOUDY    65  65 100 W3        29.72F
$$

WIZ029-030-035-036-043>047-230300-
CENTRAL WISCONSIN

CITY           SKY/WX    TMP DP  RH WIND       PRES   REMARKS
WAUSAU         LGT RAIN  65  64  97 NW3       29.70S
MOSINEE        CLOUDY    64  64 100 CALM      29.73S
MARSHFIELD     CLOUDY    66  63  90 NW6       29.71S
STEVENS POINT  CLOUDY    65  65 100 CALM      29.72S
WAUPACA        CLOUDY    68  67  98 W5        29.71F
WAUTOMA        CLOUDY    65  65 100 NW5       29.71S
WISC RAPIDS    CLOUDY    67  66  97 W3        29.73S
CAMP DOUGLAS   CLOUDY    66  66 100 CALM      29.71R
$$

WIZ011>013-019>022-031-037>040-048>050-230300-
NORTHEAST WISCONSIN

CITY           SKY/WX    TMP DP  RH WIND       PRES   REMARKS
ANTIGO         CLOUDY    64  64  99 NW3       29.73S
SHAWANO        LGT RAIN  68  66  93 CALM      29.70S
OCONTO         CLOUDY    67  66  97 CALM      29.70R
STURGEON BAY   LGT RAIN  68  67  96 NW3         N/A
GREEN BAY      CLOUDY    68  67  96 SW6       29.69S
MANITOWOC      NOT AVBL
APPLETON       TSTM      64  64 100 W8        29.69S
CLINTONVILLE   RAIN      66  64  94 CALM      29.71S
OSHKOSH        TSTM      68  66  93 CALM      29.70R FOG
$$

WIZ032>034-041-042-053>061-230300-
SOUTHWEST WISCONSIN

CITY           SKY/WX    TMP DP  RH WIND       PRES   REMARKS
LA CROSSE      CLOUDY    70  68  93 CALM      29.69F
SPARTA         CLOUDY    65  65 100 E3        29.72S FOG
VIROQUA        CLOUDY    67  67 100 NE5       29.71S
BOSCOBEL       CLOUDY    71  69  93 E3        29.67F
PRAIRIE DU CHI DRIZZLE   73  69  89 CALM      29.68S
PLATTEVILLE    MOCLDY    77  73  87 NW3       29.70R
$$

WIZ056-057-062-063-064-067-068-230300-
SOUTH CENTRAL WISCONSIN

CITY           SKY/WX    TMP DP  RH WIND       PRES   REMARKS
REEDSBURG      CLOUDY    66  66 100 SE3       29.70F
BARABOO/DELLS  CLOUDY    67  64  90 CALM      29.71F
LONE ROCK      NOT AVBL
MINERAL POINT  LGT RAIN  73  73 100 CALM      29.71R
MADISON        CLOUDY    71  66  84 N8        29.71S
MIDDLETON      CLOUDY    71  67  84 N7        29.71S
WATERTOWN      LGT RAIN  68  68 100 E6        29.70F
MONROE         CLOUDY    77  70  78 CALM      29.70R
JANESVILLE     MOCLDY    81  68  65 S5        29.69R HX  83
$$

WIZ051-052-058>065-066-070>072-230300-
SOUTHEAST WISCONSIN

CITY           SKY/WX    TMP DP  RH WIND       PRES   REMARKS
MILWAUKEE      TSTM      71  66  84 NW3       29.71R
WAUKESHA       PTCLDY    72  66  83 E3        29.73R
MILWAUKEE/TIMM PTCLDY    68  64  88 NE3       29.72F
RACINE         MOCLDY    69  65  86 N8        29.72R THUNDER
KENOSHA        MOCLDY    81  69  67 SW8       29.70R HX  84
FOND DU LAC    CLOUDY    70  63  78 NW9       29.73R
SHEBOYGAN      LGT RAIN  69  67  93 SE6       29.70S
WEST BEND      CLOUDY    70  64  83 S12       29.73R
JUNEAU         CLOUDY    70  67  89 CALM      29.73R
$$

LSZ147-162-230300-
LAKE SUPERIOR

STATION/POSITION TIME  TEMP    WIND        PRES    WAVE
                       AIR SEA DIR/SP/G            HT/PER
                 (UTC) (F)     (DEG/KT/KT) (MB)    (FT/S)
W MID LAKE BUOY  0050   48 39  210/ 10/ 10 1003.8S   1
DEVILS ISLAND    0100   71     220/ 13/ 14 1003.4R
SAXON HARBOR     0140   69     200/  5/  6 1004.7R
$$

LMZ867-665-643>646-230300-
LAKE MICHIGAN

STATION/POSITION TIME  TEMP    WIND        PRES    WAVE
                       AIR SEA DIR/SP/G            HT/PER
                 (UTC) (F)     (DEG/KT/KT) (MB)    (FT/S)
CHAMBERS ISLAND  0140   65      CALM  /  2 1005.4F
N MID LAKE BUOY  0050   58 54  210/  6/  8 1006.4F   2/ 5
NORTHPORT PIER   0140   66      CALM  /  3 1005.4F
KEWAUNEE LAKESHO 0130   68     240/  4/  6 1004.9S
SHEBOYGAN LAKESH 0100   62      CALM  /  1 1005.4F
PORT WASHINGTON  0130   64     210/  2/  6 1007.1S
ATWATER BUOY     0039   61 57  350/ 10/ 12 1006.2F
MILWAUKEE LAKESH 0130   70      30/  7/  9   N/A
S MID LAKE BUOY  0050   67 61  170/ 14/ 16 1005.7F   1/ 4
KENOSHA   LAKESH 0100   76     200/  5/  8 1005.1
$$

TC  - TEMPERATURE IN CELSIUS
VSB - VISIBILITY IN STATUTE MILES
WCI - WIND CHILL INDEX
HX  - HEAT INDEX





USA.gov is the U.S. government's official web portal to all federal, state and local government web resources and services.